Tracking 29892 objects as of 21-Nov-2024
HD Live streaming from Space Station
objects crossing your sky now

STARLINK-5196

Track STARLINK-5196 now!
10-day predictions
STARLINK-5196 is classified as:


NORAD ID: 55319
Int'l Code: 2023-010BC
Perigee: 577.1 km
Apogee: 581.3 km
Inclination: 70.0 °
Period: 96.1 minutes
Semi major axis: 6950 km
RCS: Unknown
Launch date: January 19, 2023
Source: United States (US)
Launch site: AIR FORCE WESTERN TEST RANGE (AFWTR)
Your satellite tracking list
Your tracking list is empty




NASA's NSSDC Master Catalog

Two Line Element Set (TLE):
1 55319U 23010BC  24325.82954782  .00000314  00000-0  34083-4 0  9990
2 55319  69.9985 119.1864 0003028 268.4128  91.6684 14.98332152103663
Source of the keplerian elements: AFSPC